Weather History for Ufa, Russia

Change the Weather History Date:

Monday, March 25, 2013

  Actual Average Record
Temperature  
Mean Temperature 42 °F -  
Max Temperature 51 °F - - ()
Min Temperature 32 °F - - ()
Degree Days  
Heating Degree Days 24    
Moisture  
Dew Point 28 °F    
Average Humidity 67    
Maximum Humidity 87    
Minimum Humidity 24    
Precipitation  
Precipitation 0.00 in - - ()
Sea Level Pressure  
Sea Level Pressure 29.78 in    
Wind  
Wind Speed 9 mph ()    
Max Wind Speed 18 mph    
Max Gust Speed 18 mph    
Visibility 6.1 miles    
Events      
T = Trace of Precipitation, MM = Missing Value Source: Averaged Metar Reports

Daily Weather History Graph

Daily Weather History Graph

Search for Another Location

Airport:

Trip Planner

Search our weather history database for the weather conditions in past years. The results will help you decide how hot, cold, wet, or windy it might be!

Date:

Astronomy

Mar. 25, 2013 Rise Set
Actual Time 8:06 AM YEKT 8:39 PM YEKT
Civil Twilight 7:30 AM YEKT 9:15 PM YEKT
Nautical Twilight 6:47 AM YEKT 9:58 PM YEKT
Astronomical Twilight 6:01 AM YEKT 10:45 PM YEKT
Moon 6:32 PM YEKT (3/25) 6:53 AM YEKT (3/25)
Length of Visible Light 13h 45m
Length of Day
12h 33m
Waxing Gibbous, 94% of the Moon is Illuminated
Mar 25
Waxing Gibbous
Mar 27
Full
Apr 3
Last Quarter
Apr 10
New
Apr 18
First Quarter

Hourly Weather History & Observations

Time (YEKT) Temp. Windchill Dew Point Humidity Pressure Visibility Wind Dir Wind Speed Gust Speed Precip Events Conditions
12:00 AM 40 °F - 27 °F 47% 29.94 in 6 mi SE 8.9 mph - -   Mostly Cloudy
12:00 AM 33.8 °F 24.5 °F 30.2 °F 87% 29.92 in - ESE 13.4 mph - N/A   Clear
12:30 AM 33.8 °F 24.5 °F 30.2 °F 87% 29.92 in 6.2 mi ESE 13.4 mph - N/A   Overcast
1:00 AM 35.6 °F 27.7 °F 30.2 °F 81% 29.92 in 6.2 mi ESE 11.2 mph - N/A   Overcast
1:30 AM 33.8 °F 25.4 °F 30.2 °F 87% 29.92 in 6.2 mi ESE 11.2 mph - N/A   Overcast
2:00 AM 33.8 °F 25.4 °F 30.2 °F 87% 29.92 in 6.2 mi ESE 11.2 mph - N/A   Overcast
2:30 AM 35.6 °F 28.7 °F 28.4 °F 75% 29.92 in 6.2 mi East 8.9 mph - N/A   Overcast
3:00 AM 37 °F - 26 °F 53% 29.94 in 6 mi ESE 6.7 mph - -   Mostly Cloudy
3:00 AM 33.8 °F 25.4 °F 28.4 °F 81% 29.92 in 6.2 mi ESE 11.2 mph - N/A   Overcast
3:30 AM 33.8 °F 26.5 °F 28.4 °F 81% 29.92 in 6.2 mi ESE 8.9 mph - N/A   Overcast
4:00 AM 33.8 °F 27.9 °F 28.4 °F 81% 29.89 in 6.2 mi East 6.7 mph - N/A   Overcast
4:30 AM 33.8 °F 26.5 °F 28.4 °F 81% 29.89 in 6.2 mi East 8.9 mph - N/A   Overcast
5:00 AM 33.8 °F 27.9 °F 28.4 °F 81% 29.89 in 6.2 mi ESE 6.7 mph - N/A   Overcast
5:30 AM 32.0 °F 24.3 °F 28.4 °F 87% 29.89 in 6.2 mi ESE 8.9 mph - N/A   Overcast
6:00 AM 36 °F - 24 °F 50% 29.91 in 6 mi SE 6.7 mph - -   Clear
6:00 AM 32.0 °F 24.3 °F 28.4 °F 87% 29.89 in 6.2 mi ESE 8.9 mph - N/A   Overcast
6:30 AM 32.0 °F 24.3 °F 26.6 °F 80% 29.86 in 6.2 mi ESE 8.9 mph - N/A   Overcast
7:00 AM 32.0 °F 24.3 °F 26.6 °F 80% 29.86 in 6.2 mi ESE 8.9 mph - N/A   Overcast
7:30 AM 32.0 °F 24.3 °F 26.6 °F 80% 29.86 in 6.2 mi ESE 8.9 mph - N/A   Overcast
8:00 AM 32.0 °F 23.2 °F 24.8 °F 75% 29.86 in 6.2 mi ESE 11.2 mph - N/A   Overcast
8:30 AM 32.0 °F 25.7 °F 24.8 °F 75% 29.86 in - ESE 6.7 mph - N/A   Clear
9:00 AM 35 °F - 23 °F 48% 29.88 in 6 mi ESE 4.5 mph - -   Clear
9:00 AM 32.0 °F 25.7 °F 24.8 °F 75% 29.86 in - ESE 6.7 mph - N/A   Clear
9:30 AM 32.0 °F 24.3 °F 26.6 °F 80% 29.83 in - ESE 8.9 mph - N/A   Clear
10:00 AM 33.8 °F 26.5 °F 26.6 °F 75% 29.83 in - ESE 8.9 mph - N/A   Clear
10:30 AM 33.8 °F 25.4 °F 26.6 °F 75% 29.83 in - ESE 11.2 mph 17.9 mph N/A   Clear
11:00 AM 35.6 °F 28.7 °F 26.6 °F 70% 29.83 in - ESE 8.9 mph - N/A   Clear
11:30 AM 35.6 °F 28.7 °F 26.6 °F 70% 29.80 in - ESE 8.9 mph - N/A   Clear
12:00 PM 40 °F - 20 °F 32% 29.83 in 6 mi SE 6.7 mph - -   Overcast
12:00 PM 37.4 °F 29.9 °F 26.6 °F 65% 29.80 in - ESE 11.2 mph - N/A   Clear
12:30 PM 37.4 °F 29.9 °F 26.6 °F 65% 29.80 in - ESE 11.2 mph - N/A   Clear
1:00 PM 39.2 °F 32.2 °F 26.6 °F 61% 29.77 in - ESE 11.2 mph - N/A   Clear
1:30 PM 39.2 °F 30.0 °F 26.6 °F 61% 29.77 in - ESE 17.9 mph - N/A   Clear
2:00 PM 39.2 °F 31.3 °F 28.4 °F 65% 29.77 in - ESE 13.4 mph - N/A   Clear
2:30 PM 41.0 °F 33.6 °F 28.4 °F 61% 29.74 in - ESE 13.4 mph - N/A   Clear
3:00 PM 47 °F - 22 °F 24% 29.77 in 6 mi SE 8.9 mph - -   Clear
3:00 PM 41.0 °F 33.6 °F 28.4 °F 61% 29.74 in - ESE 13.4 mph - N/A   Clear
3:30 PM 41.0 °F 32.9 °F 28.4 °F 61% 29.74 in - ESE 15.7 mph - N/A   Clear
4:00 PM 42.8 °F 36.7 °F 30.2 °F 61% 29.71 in - ESE 11.2 mph - N/A   Clear
4:30 PM 42.8 °F 37.6 °F 30.2 °F 61% 29.68 in - ESE 8.9 mph - N/A   Clear
5:00 PM 42.8 °F 37.6 °F 30.2 °F 61% 29.68 in - ESE 8.9 mph - N/A   Clear
5:30 PM 42.8 °F 37.6 °F 30.2 °F 61% 29.68 in - ESE 8.9 mph - N/A   Clear
6:00 PM 51 °F - 26 °F 26% 29.68 in 6 mi East 4.5 mph - -   Clear
6:00 PM 46.4 °F 41.2 °F 30.2 °F 53% 29.65 in - East 11.2 mph - N/A   Clear
6:30 PM 48.2 °F - 30.2 °F 50% 29.65 in - East 11.2 mph 17.9 mph N/A   Clear
7:00 PM 46.4 °F 42.0 °F 30.2 °F 53% 29.62 in - East 8.9 mph 15.7 mph N/A   Clear
7:30 PM 46.4 °F 41.2 °F 30.2 °F 53% 29.62 in - East 11.2 mph 17.9 mph N/A   Clear
8:00 PM 44.6 °F 38.9 °F 30.2 °F 57% 29.59 in - East 11.2 mph - N/A   Clear
8:30 PM 44.6 °F 38.9 °F 30.2 °F 57% 29.59 in - East 11.2 mph 17.9 mph N/A   Clear
9:00 PM 46 °F - 28 °F 36% 29.62 in 6 mi East 2.2 mph - -   Scattered Clouds
9:00 PM 41.0 °F 35.4 °F 30.2 °F 65% 29.59 in 6.2 mi East 8.9 mph - N/A   Mostly Cloudy
9:30 PM 39.2 °F 33.1 °F 30.2 °F 70% 29.59 in 6.2 mi ESE 8.9 mph 15.7 mph N/A   Mostly Cloudy
10:00 PM 37.4 °F 30.9 °F 30.2 °F 75% 29.56 in 6.2 mi ESE 8.9 mph - N/A   Mostly Cloudy
10:30 PM 37.4 °F 32.2 °F 30.2 °F 75% 29.59 in 6.2 mi SE 6.7 mph - N/A   Mostly Cloudy
11:00 PM 35.6 °F 26.0 °F 30.2 °F 81% 29.56 in 6.2 mi ESE 15.7 mph - N/A   Mostly Cloudy
11:30 PM 35.6 °F 26.8 °F 30.2 °F 81% 29.56 in 6.2 mi ESE 13.4 mph - N/A   Mostly Cloudy